Burlington, VT

10:37 PM EDT on October 20, 2017 (GMT -0400)
Burlington International

Weather History for KBTV - April, 2014

Change the Weather History Date:

Tuesday, April 8, 2014

  Actual Average Record
Temperature  
Mean Temperature 49 °F 41 °F  
Max Temperature 58 °F 51 °F 73 °F (1991)
Min Temperature 39 °F 32 °F 11 °F (1972)
Degree Days  
Heating Degree Days 16 24  
Month to date heating degree days 192 204  
Since 1 July heating degree days 6979 6668  
Cooling Degree Days 0 0  
Month to date cooling degree days 0 0  
Year to date cooling degree days 0 0  
Moisture  
Dew Point 39 °F    
Average Humidity 78    
Maximum Humidity 93    
Minimum Humidity 62    
Precipitation  
Precipitation 0.26 in 0.09 in 1.29 in (1914)
Month to date precipitation 0.40 0.70  
Year to date precipitation 6.56 6.74  
Snow  
Snow 0.00 in 0.20 in 4.90 in (1907)
Month to date snowfall 0.0 1.8  
Since 1 July snowfall 83.7 78.4  
Snow Depth 0.00 in    
Sea Level Pressure  
Sea Level Pressure 29.43 in    
Wind  
Wind Speed 10 mph (SSW)    
Max Wind Speed 24 mph    
Max Gust Speed 31 mph    
Visibility 9 miles    
Events Rain    
T = Trace of Precipitation, MM = Missing Value Source: NWS Daily Summary

Daily Weather History Graph

Daily Weather History Graph

Search for Another Location

Airport or City:

Trip Planner

Search our weather history database for the weather conditions in past years. The results will help you decide how hot, cold, wet, or windy it might be!

Date:

Astronomy

Apr. 08, 2014 Rise Set
Actual Time 6:21 AM EDT 7:28 PM EDT
Civil Twilight 5:51 AM EDT 7:58 PM EDT
Nautical Twilight 5:15 AM EDT 8:34 PM EDT
Astronomical Twilight 4:37 AM EDT 9:12 PM EDT
Moon 1:06 PM EDT (4/8) 2:46 AM EDT (4/8)
Length of Visible Light 14h 07m
Length of Day
13h 07m
Waxing Gibbous, 62% of the Moon is Illuminated
Apr 8
Waxing Gibbous
Apr 15
Full
Apr 22
Last Quarter
Apr 29
New
May 6
First Quarter

Hourly Weather History & Observations

Time (EDT) Temp. Windchill Dew Point Humidity Pressure Visibility Wind Dir Wind Speed Gust Speed Precip Events Conditions
12:54 AM 41.0 °F 36.4 °F 35.1 °F 79% 29.77 in 10.0 mi ESE 6.9 mph - N/A   Overcast
1:54 AM 42.1 °F 37.7 °F 35.1 °F 76% 29.68 in 10.0 mi SE 6.9 mph - 0.00 in   Overcast
2:18 AM 43.0 °F 36.8 °F 37.0 °F 80% 29.62 in 10.0 mi SSE 11.5 mph 19.6 mph N/A   Overcast
2:39 AM 44.1 °F 39.0 °F 37.0 °F 76% 29.58 in 10.0 mi SSE 9.2 mph - N/A   Overcast
2:54 AM 44.1 °F 36.8 °F 37.0 °F 76% 29.55 in 10.0 mi ESE 16.1 mph 19.6 mph N/A   Overcast
3:16 AM 44.1 °F 38.6 °F 37.9 °F 79% 29.53 in 10.0 mi ESE 10.4 mph - N/A   Overcast
3:54 AM 39.9 °F 37.8 °F 37.9 °F 93% 29.54 in 2.0 mi SE 3.5 mph - 0.06 in Rain Heavy Rain
4:08 AM 39.9 °F 36.7 °F 37.9 °F 93% 29.54 in 4.0 mi SSE 4.6 mph - 0.07 in Rain Rain
4:54 AM 39.9 °F 35.8 °F 37.9 °F 93% 29.49 in 10.0 mi SW 5.8 mph - 0.08 in   Overcast
5:54 AM 41.0 °F 39.0 °F 39.0 °F 93% 29.45 in 8.0 mi SSW 3.5 mph - 0.01 in   Mostly Cloudy
6:54 AM 44.1 °F 40.1 °F 41.0 °F 89% 29.39 in 10.0 mi South 6.9 mph - N/A   Mostly Cloudy
7:18 AM 44.1 °F 40.1 °F 41.0 °F 89% 29.40 in 10.0 mi SW 6.9 mph - N/A   Overcast
7:54 AM 44.1 °F 39.5 °F 41.0 °F 89% 29.38 in 10.0 mi South 8.1 mph - N/A   Mostly Cloudy
8:54 AM 46.0 °F 41.4 °F 43.0 °F 89% 29.35 in 10.0 mi South 9.2 mph - N/A   Overcast
9:54 AM 48.9 °F - 44.1 °F 83% 29.31 in 10.0 mi SSE 10.4 mph - N/A   Overcast
10:54 AM 52.0 °F - 46.0 °F 80% 29.30 in 10.0 mi South 10.4 mph - N/A   Overcast
11:54 AM 55.9 °F - 46.9 °F 72% 29.26 in 10.0 mi South 19.6 mph 27.6 mph N/A   Mostly Cloudy
12:18 PM 55.9 °F - 46.9 °F 72% 29.25 in 10.0 mi South 18.4 mph 31.1 mph N/A   Mostly Cloudy
12:54 PM 55.9 °F - 46.9 °F 72% 29.26 in 10.0 mi South 20.7 mph 31.1 mph N/A   Mostly Cloudy
1:54 PM 55.9 °F - 46.9 °F 72% 29.25 in 10.0 mi South 15.0 mph 23.0 mph N/A   Overcast
2:54 PM 57.0 °F - 46.9 °F 69% 29.23 in 10.0 mi South 11.5 mph 23.0 mph N/A   Mostly Cloudy
3:42 PM 53.1 °F - 46.0 °F 77% 29.25 in 2.5 mi SW 12.7 mph 21.9 mph 0.05 in Rain Light Rain
3:49 PM 51.8 °F - 46.4 °F 82% 29.25 in 10.0 mi WSW 10.4 mph - 0.06 in Rain Light Rain
3:54 PM 52.0 °F - 46.9 °F 83% 29.26 in 10.0 mi WSW 10.4 mph - 0.06 in Rain Light Rain
4:54 PM 48.9 °F - 37.9 °F 66% 29.32 in 10.0 mi WNW 11.5 mph - 0.00 in   Mostly Cloudy
5:54 PM 46.0 °F 40.6 °F 35.1 °F 66% 29.38 in 10.0 mi West 11.5 mph - N/A   Mostly Cloudy
6:54 PM 45.0 °F 40.6 °F 32.0 °F 60% 29.43 in 10.0 mi WNW 8.1 mph - N/A   Mostly Cloudy
7:54 PM 43.0 °F 38.2 °F 30.9 °F 62% 29.47 in 10.0 mi West 8.1 mph - N/A   Overcast
8:54 PM 41.0 °F 34.7 °F 33.1 °F 73% 29.51 in 10.0 mi West 10.4 mph - 0.00 in Rain Light Rain
9:10 PM 41.0 °F 33.9 °F 33.1 °F 73% 29.51 in 7.0 mi West 12.7 mph 21.9 mph 0.01 in Rain Light Rain
9:54 PM 39.9 °F 36.7 °F 34.0 °F 79% 29.53 in 10.0 mi WSW 4.6 mph - 0.05 in Rain Light Rain
10:28 PM 39.9 °F 35.1 °F 34.0 °F 79% 29.52 in 10.0 mi West 6.9 mph - 0.00 in   Overcast
10:54 PM 41.0 °F 35.8 °F 34.0 °F 76% 29.54 in 10.0 mi West 8.1 mph - 0.00 in   Overcast
11:54 PM 41.0 °F 38.0 °F 35.1 °F 79% 29.56 in 10.0 mi West 4.6 mph - N/A   Overcast